EW4964 Weather Reports


Display with metric or nautical units.
time (UTC)temp
F
wind
direction
speed
MPH
gust
MPH
rain 1hr
in
rain 24hr
in
rain mn
in
humidity
%
barometer
mb
20260510154507 67 177 3.0 7.0 0.00 0.00 0.00 23 1012.4
20260510153006 69 165 2.0 5.0 0.00 0.00 0.00 23 1012.3
20260510151506 71 322 3.0 6.0 0.00 0.00 0.00 21 1012.4
20260510150007 71 307 3.0 7.0 0.00 0.00 0.00 21 1012.4
20260510144507 71 274 3.0 8.0 0.00 0.00 0.00 21 1012.7
20260510143006 74 178 3.0 7.0 0.00 0.00 0.00 21 1012.8
20260510141510 73 234 4.0 8.0 0.00 0.00 0.00 21 1013.2
20260510140025 73 200 4.0 8.0 0.00 0.00 0.00 21 1013.0
20260510134507 72 204 4.0 7.0 0.00 0.00 0.00 21 1013.2
20260510133007 69 305 3.0 4.0 0.00 0.00 0.00 22 1013.3
20260510131511 69 253 4.0 8.0 0.00 0.00 0.00 22 1013.5
20260510130006 67 259 3.0 4.0 0.00 0.00 0.00 23 1013.7
20260510124507 67 242 5.0 10.0 0.00 0.00 0.00 22 1013.8
20260510121506 70 210 4.0 9.0 0.00 0.00 0.00 22 1014.2
20260510120007 69 216 4.0 8.0 0.00 0.00 0.00 22 1014.1
20260510114506 68 270 3.0 7.0 0.00 0.00 0.00 22 1014.5
20260510113007 66 300 2.0 7.0 0.00 0.00 0.00 23 1014.8
20260510111506 67 264 3.0 8.0 0.00 0.00 0.00 23 1014.8
20260510110006 65 266 3.0 6.0 0.00 0.00 0.00 22 1014.8
20260510104506 66 156 4.0 6.0 0.00 0.00 0.00 23 1015.2
20260510103006 65 236 3.0 8.0 0.00 0.00 0.00 23 1015.2
20260510100006 63 270 3.0 7.0 0.00 0.00 0.00 24 1015.6
20260510094506 63 270 4.0 7.0 0.00 0.00 0.00 24 1015.7
20260510093005 62 229 4.0 8.0 0.00 0.00 0.00 25 1015.5
20260510091506 60 262 4.0 8.0 0.00 0.00 0.00 31 1015.7
20260510090007 59 235 2.0 5.0 0.00 0.00 0.00 31 1015.9
20260510084505 58 121 3.0 6.0 0.00 0.00 0.00 31 1015.7
20260510083006 58 166 3.0 6.0 0.00 0.00 0.00 32 1015.8
20260510081505 57 149 2.0 6.0 0.00 0.00 0.00 32 1016.1
20260510080006 56 173 3.0 6.0 0.00 0.00 0.00 32 1016.2
20260510074506 55 45 3.0 7.0 0.00 0.00 0.00 33 1016.3
20260510073006 53 128 2.0 5.0 0.00 0.00 0.00 34 1016.3
20260510071505 52 69 2.0 5.0 0.00 0.00 0.00 38 1016.7
20260510070006 51 203 2.0 5.0 0.00 0.00 0.00 38 1016.5
20260510064506 49 153 2.0 4.0 0.00 0.00 0.00 40 1017.0
20260510063006 48 168 2.0 4.0 0.00 0.00 0.00 41 1017.1
20260510061506 47 171 3.0 5.0 0.00 0.00 0.00 41 1017.1
20260510054505 46 165 2.0 4.0 0.00 0.00 0.00 45 1016.9
20260510053006 45 179 3.0 6.0 0.00 0.00 0.00 46 1017.1
20260510044505 42 141 2.0 5.0 0.00 0.00 0.00 57 1017.2
20260510043005 40 138 2.0 4.0 0.00 0.00 0.00 59 1017.1
20260510041505 40 135 1.0 4.0 0.00 0.00 0.00 59 1017.1
20260510040007 39 135 2.0 5.0 0.00 0.00 0.00 58 1016.9
20260510034505 39 135 2.0 4.0 0.00 0.00 0.00 57 1016.9
20260510033005 39 135 1.0 2.0 0.00 0.00 0.00 57 1017.3
20260510030005 40 135 2.0 3.0 0.00 0.00 0.00 57 1017.0
20260510024504 40 135 3.0 5.0 0.00 0.00 0.00 57 1016.9
20260510023005 40 135 2.0 4.0 0.00 0.00 0.00 57 1017.3
20260510021505 40 135 3.0 4.0 0.00 0.00 0.00 56 1017.2
20260510020005 40 135 2.0 4.0 0.00 0.00 0.00 56 1017.5
20260510014505 40 135 3.0 4.0 0.00 0.00 0.00 55 1017.6
20260510013005 40 135 2.0 4.0 0.00 0.00 0.00 55 1017.6
20260510011504 41 135 2.0 4.0 0.00 0.00 0.00 55 1017.8
20260510010005 41 135 3.0 6.0 0.00 0.00 0.00 55 1017.8
20260510004505 41 135 2.0 4.0 0.00 0.00 0.00 55 1018.0
20260510001504 41 170 2.0 4.0 0.00 0.00 0.00 55 1018.0
20260510000005 41 90 2.0 4.0 0.00 0.00 0.00 55 1018.2
20260509234504 41 90 2.0 4.0 0.00 0.00 0.00 54 1018.5
20260509233004 41 77 2.0 3.0 0.00 0.00 0.00 54 1018.4
20260509231508 42 78 1.0 4.0 0.00 0.00 0.00 54 1018.6
20260509230007 42 33 2.0 4.0 0.00 0.00 0.00 53 1018.7
20260509224509 42 85 1.0 2.0 0.00 0.00 0.00 53 1019.0
20260509223008 42 160 1.0 3.0 0.00 0.00 0.00 52 1019.1
20260509221507 42 78 1.0 3.0 0.00 0.00 0.00 52 1019.2
20260509220011 43 123 1.0 3.0 0.00 0.00 0.00 51 1019.3
20260509214507 43 45 1.0 3.0 0.00 0.00 0.00 51 1019.3
20260509213007 43 67 2.0 4.0 0.00 0.00 0.00 51 1019.2
20260509211507 44 47 2.0 4.0 0.00 0.00 0.00 51 1019.1
20260509210008 44 82 2.0 4.0 0.00 0.00 0.00 44 1019.2
20260509204507 44 106 3.0 7.0 0.00 0.00 0.00 44 1019.2
20260509203008 44 90 3.0 5.0 0.00 0.00 0.00 43 1019.1
20260509201507 45 90 3.0 5.0 0.00 0.00 0.00 43 1019.2
20260509200008 45 90 3.0 5.0 0.00 0.00 0.00 43 1019.2
20260509194507 45 90 3.0 5.0 0.00 0.00 0.00 43 1019.3
20260509191507 46 90 3.0 5.0 0.00 0.00 0.00 42 1019.2
20260509190007 46 90 3.0 6.0 0.00 0.00 0.00 42 1019.1
20260509184508 47 88 4.0 6.0 0.00 0.00 0.00 42 1019.0
20260509183007 47 90 3.0 5.0 0.00 0.00 0.00 41 1018.9
20260509181507 48 90 3.0 5.0 0.00 0.00 0.00 41 1019.0
20260509180007 49 90 2.0 6.0 0.00 0.00 0.00 41 1019.2
20260509174507 49 90 3.0 7.0 0.00 0.00 0.00 40 1018.8
20260509171506 51 90 2.0 4.0 0.00 0.00 0.00 39 1018.9
20260509170008 51 90 2.0 4.0 0.00 0.00 0.00 38 1019.1
20260509164508 52 90 3.0 5.0 0.00 0.00 0.00 37 1019.0
20260509163007 53 90 3.0 6.0 0.00 0.00 0.00 34 1019.0
20260509161506 54 90 3.0 4.0 0.00 0.00 0.00 33 1019.1